Wind_Speed
19 20 20 20 20 20 20 19 18 18 19 19 19 19 19 19 19 19 19 18 18 18 16 14 13 12 11 11 10 9 8 7 7 6 5 4 4 4 3 3 4 6 7 8
20 20 20 20 21 21 20 20 19 19 19 19 19 19 19 20 20 20 20 20 19 19 18 18 17 16 15 15 13 13 12 11 10 8 7 7 6 6 7 7 8 8 9 10
20 20 20 21 21 21 21 20 19 19 18 18 19 19 19 20 21 21 20 20 20 20 19 18 18 17 16 16 15 14 13 12 11 10 9 9 9 9 9 9 10 11 13 14
21 21 22 22 22 21 21 20 19 18 18 19 19 19 19 20 20 21 21 21 21 20 20 20 20 19 18 18 17 17 16 15 14 12 12 11 11 11 12 12 12 13 15 16
21 21 22 22 21 21 20 19 18 18 18 18 18 19 20 20 20 21 21 21 20 20 20 20 20 20 20 20 19 19 18 17 16 16 15 14 14 14 14 14 13 14 15 15
20 20 21 21 21 20 19 19 18 17 17 17 18 19 19 20 20 21 21 21 21 21 21 21 21 21 21 21 20 19 19 18 18 18 17 17 16 16 15 15 15 14 14 15
19 19 20 21 21 21 19 18 17 16 16 16 17 18 18 19 20 20 20 21 21 21 21 20 20 21 21 21 20 20 20 19 19 19 19 19 18 17 17 17 16 15 15 15
18 18 19 19 20 21 20 18 16 15 15 16 16 17 18 18 18 19 19 19 20 20 19 19 19 20 20 20 20 20 20 20 20 20 20 21 21 20 20 20 19 17 16 15
16 17 18 19 18 19 20 18 16 15 15 15 15 16 16 17 17 17 17 18 18 18 18 18 18 18 19 19 19 20 20 21 21 21 22 23 23 23 23 23 22 21 20 17
13 15 16 17 17 18 18 19 17 15 14 14 14 14 15 15 15 16 16 16 16 16 17 17 17 17 18 18 19 20 20 20 20 21 22 23 24 24 25 25 25 25 24 21
10 12 13 15 16 16 17 17 18 16 13 13 13 13 13 13 13 14 14 14 15 15 16 16 16 16 17 17 17 18 19 19 19 20 21 23 24 25 26 27 27 27 27 26
8 9 10 12 14 14 15 15 16 16 14 11 11 11 11 11 11 12 12 13 13 14 15 15 15 16 16 16 17 17 18 18 19 20 21 22 23 24 26 27 28 28 29 28
8 8 8 9 10 12 13 13 14 14 13 11 9 9 9 9 9 10 10 11 12 13 14 14 15 15 15 15 16 16 17 17 18 19 20 20 21 22 24 26 27 27 28 29
8 8 7 7 8 9 10 11 11 12 12 11 9 8 7 7 8 8 8 9 11 12 12 13 14 14 14 14 15 16 16 17 17 18 19 19 20 21 22 23 25 26 26 27
10 9 8 7 7 7 8 8 9 9 9 10 9 8 7 7 7 7 7 8 9 10 11 11 12 12 12 13 13 14 15 16 17 17 18 19 19 20 20 21 22 23 24 25
11 10 9 9 8 8 8 7 7 7 8 8 8 9 8 7 7 7 7 7 8 9 9 10 10 10 11 11 12 13 14 15 16 17 17 17 18 19 19 19 20 20 21 22
13 12 11 10 10 10 9 9 8 7 7 7 7 8 8 8 8 8 8 8 8 9 9 9 9 9 9 10 10 11 12 13 14 15 16 16 17 17 17 17 18 18 18 19
16 15 14 13 12 11 11 11 10 9 9 8 8 8 8 8 8 8 8 8 9 9 9 9 9 9 9 8 9 9 10 11 12 13 14 15 15 15 16 16 16 16 16 16
19 18 17 16 15 14 13 13 12 12 11 11 10 10 9 9 9 9 9 9 9 9 9 9 9 9 9 8 8 8 9 9 10 11 12 13 14 14 14 15 15 15 14 14
23 22 20 19 18 17 16 15 15 14 14 14 13 13 12 11 11 10 10 10 9 9 9 10 10 10 10 9 9 8 8 8 8 9 9 10 11 12 13 13 13 13 13 12
28 27 25 23 22 21 20 19 18 18 17 17 17 16 15 15 14 13 13 12 11 10 10 10 10 10 10 10 9 9 9 8 8 8 8 9 9 10 11 11 11 11 11 10
33 31 30 29 27 26 25 23 23 22 21 21 20 20 19 19 18 17 16 16 14 14 13 12 11 10 10 10 10 9 9 9 9 9 8 8 8 9 9 9 9 9 9 8
39 37 36 34 33 32 30 29 28 27 26 25 24 23 23 23 22 21 21 20 19 18 17 15 14 13 12 11 11 11 10 10 10 10 10 9 9 9 9 8 8 8 7 7
44 43 42 41 39 37 35 34 33 32 31 30 29 28 27 27 26 26 25 24 23 22 21 20 19 17 16 15 13 12 12 12 12 11 11 11 11 11 10 10 9 8 8 7
49 49 48 47 45 43 42 40 39 37 36 35 34 33 32 31 30 30 29 29 28 27 25 24 23 22 21 19 17 16 15 14 13 13 13 13 13 13 14 13 12 11 10 10
54 54 54 53 52 50 48 46 44 43 41 40 39 38 37 36 35 34 33 32 32 31 30 29 28 26 25 24 23 21 20 18 17 16 15 15 15 15 15 16 16 15 14 13
57 57 58 57 57 55 53 52 50 48 47 45 44 43 43 41 40 39 38 37 36 35 35 34 32 31 30 29 28 26 25 23 22 20 19 18 17 17 17 17 17 18 18 17
Wind_Direction
32 36 38 37 38 40 40 41 44 48 50 49 50 53 54 56 60 60 58 60 60 61 64 67 72 74 70 66 61 57 55 52 43 35 23 8 355 343 334 316 290 271 263 257
35 38 40 39 39 40 40 41 44 47 49 51 53 55 56 57 60 60 60 60 61 62 64 66 68 70 68 65 62 58 54 51 46 37 29 17 2 345 330 314 301 288 279 271
37 39 41 41 38 40 41 44 47 49 50 51 52 56 57 58 59 59 60 60 60 62 65 66 66 66 64 61 58 54 49 44 39 31 23 12 0 348 334 319 307 296 285 279
38 39 42 40 39 39 42 46 49 52 54 55 55 56 58 59 59 60 61 63 63 63 63 62 62 62 60 58 56 52 48 44 39 33 25 17 6 356 346 334 320 308 298 289
36 38 40 39 38 39 42 47 49 52 55 56 57 58 58 58 59 61 63 63 63 63 63 62 61 60 60 58 56 52 48 44 39 33 26 17 8 360 352 343 333 321 310 300
35 36 37 37 37 39 43 50 49 53 56 57 57 57 58 58 59 61 62 63 63 64 64 63 62 60 59 56 53 49 44 40 37 33 28 23 17 11 4 356 347 337 325 314
34 35 36 35 36 39 44 48 50 52 54 55 56 57 58 59 61 62 63 63 64 64 63 61 59 56 55 52 50 46 43 40 38 35 31 27 22 17 11 4 357 349 341 331
33 34 34 33 35 38 42 46 49 51 53 55 57 58 58 59 62 63 64 64 63 62 60 58 56 53 50 48 46 45 42 40 39 37 34 32 29 25 20 16 11 4 356 347
31 33 33 34 36 38 40 44 47 50 53 55 58 58 58 60 62 63 63 61 59 57 55 53 50 47 46 45 44 42 41 41 39 38 37 35 33 30 26 23 21 17 11 5
26 29 31 33 36 37 39 41 43 47 50 53 55 56 57 59 61 60 58 57 55 52 50 48 46 44 43 43 43 41 39 39 38 38 37 35 33 31 30 29 28 26 25 24
13 21 25 28 32 35 37 39 41 44 48 51 51 52 53 55 57 55 53 51 49 46 44 42 41 41 41 41 40 39 38 38 38 37 36 35 34 34 34 34 34 34 34 36
348 1 11 19 26 31 34 36 39 41 45 47 47 47 48 50 51 49 45 43 40 38 37 37 37 39 40 40 39 39 38 37 37 36 35 34 34 34 35 35 37 39 40 43
320 335 350 3 16 24 29 31 33 36 39 41 41 41 41 41 41 40 37 34 32 31 32 33 34 36 38 38 38 38 36 34 33 33 32 31 32 33 34 35 37 39 42 45
297 308 323 340 355 7 17 23 26 29 31 33 33 32 29 29 28 27 26 24 24 25 26 28 31 33 35 35 36 36 35 33 32 31 30 30 30 31 34 36 38 40 43 46
284 292 302 314 327 339 351 2 13 18 21 23 23 20 16 14 12 11 9 9 10 13 17 21 25 28 29 31 32 33 33 32 30 29 29 29 29 30 33 35 38 40 43 46
280 285 290 296 304 312 321 332 342 355 3 7 10 10 4 358 357 357 357 356 355 359 5 8 12 17 21 23 26 28 29 28 26 26 27 27 28 29 31 34 36 39 42 45
275 279 282 285 289 294 299 306 312 319 329 340 348 351 353 349 343 340 341 341 343 348 353 355 357 1 6 12 16 19 21 22 22 23 24 25 26 28 30 33 35 37 40 44
267 271 275 279 282 285 288 291 295 298 301 306 316 326 331 335 339 337 333 331 331 334 339 342 343 345 349 353 358 3 8 12 15 18 21 22 23 25 27 30 33 36 39 42
261 263 267 271 275 278 281 283 284 287 289 291 293 298 307 313 317 324 329 329 327 326 325 327 330 333 336 332 334 342 349 357 4 9 13 17 19 21 24 27 30 33 36 39
258 259 261 264 268 271 274 276 278 279 281 283 284 286 288 292 297 302 306 313 320 324 324 322 322 323 325 326 321 321 327 334 344 352 358 5 11 15 18 21 25 29 32 36
256 257 258 260 262 265 268 270 272 274 275 277 278 279 281 282 284 287 290 294 299 305 313 318 321 320 319 318 317 314 312 314 320 329 337 345 352 0 8 13 16 20 25 29
255 255 256 258 259 261 263 266 268 270 271 273 274 276 277 278 279 280 281 283 285 288 293 300 306 311 314 313 310 307 305 304 304 307 313 320 328 336 346 355 2 8 13 17
255 256 256 257 257 259 260 262 263 265 267 269 270 272 273 274 275 276 276 277 277 278 280 283 288 293 299 304 305 301 296 295 294 294 294 297 303 309 317 326 337 346 352 357
254 255 256 257 257 257 258 259 260 262 264 266 267 268 269 270 271 272 274 275 275 275 274 274 276 279 282 287 292 295 294 290 288 287 285 283 283 286 291 297 303 312 321 326
250 252 254 255 256 256 257 258 259 260 261 262 264 265 266 267 268 269 270 271 272 273 273 272 271 272 273 275 278 281 284 286 286 284 281 280 279 278 277 279 282 286 291 296
247 249 251 253 254 255 256 257 258 259 259 260 261 262 263 264 265 266 267 268 269 269 270 270 270 270 270 270 270 272 273 276 278 279 279 278 277 276 275 273 272 273 276 278
248 249 250 252 253 254 255 256 257 257 258 258 259 260 261 262 262 263 263 264 265 266 267 267 268 268 268 268 267 267 267 269 271 272 273 273 272 272 272 272 270 269 268 270
Height
5862 5857 5853 5849 5845 5841 5837 5833 5830 5826 5822 5819 5816 5813 5810 5806 5803 5800 5797 5795 5793 5791 5790 5789 5788 5787 5787 5786 5786 5785 5785 5784 5783 5783 5782 5781 5780 5779 5778 5778 5777 5777 5777 5777
5864 5860 5856 5852 5848 5844 5840 5837 5833 5830 5827 5824 5821 5818 5815 5811 5808 5805 5803 5801 5799 5797 5795 5794 5792 5791 5790 5790 5789 5788 5787 5786 5785 5784 5783 5782 5781 5780 5778 5777 5776 5775 5775 5774
5867 5863 5859 5855 5851 5847 5843 5840 5837 5834 5832 5828 5825 5823 5820 5817 5814 5811 5808 5806 5804 5802 5800 5799 5797 5796 5795 5793 5792 5791 5789 5788 5787 5785 5784 5782 5780 5779 5777 5776 5774 5773 5772 5771
5870 5867 5862 5861 5854 5850 5847 5844 5841 5838 5835 5833 5830 5827 5825 5822 5819 5816 5813 5811 5809 5807 5805 5803 5802 5800 5798 5797 5795 5793 5792 5790 5788 5787 5785 5783 5781 5778 5776 5774 5772 5770 5768 5767
5872 5868 5865 5862 5857 5854 5850 5847 5845 5842 5840 5837 5835 5832 5829 5826 5823 5821 5818 5816 5814 5812 5810 5808 5807 5805 5803 5801 5799 5797 5795 5793 5791 5788 5786 5783 5781 5778 5775 5772 5769 5767 5764 5762
5875 5871 5868 5866 5861 5857 5855 5851 5849 5846 5843 5841 5839 5837 5834 5831 5828 5825 5823 5821 5819 5817 5815 5814 5812 5810 5807 5805 5803 5801 5798 5796 5793 5790 5788 5784 5781 5778 5775 5771 5768 5764 5761 5758
5878 5874 5871 5868 5864 5860 5858 5856 5852 5849 5847 5845 5842 5840 5838 5835 5833 5830 5828 5826 5824 5822 5820 5819 5816 5814 5812 5809 5807 5804 5802 5799 5796 5793 5789 5786 5782 5779 5775 5771 5767 5762 5759 5755
5880 5877 5876 5870 5866 5864 5861 5857 5855 5852 5850 5848 5846 5844 5841 5839 5837 5835 5833 5831 5829 5827 5825 5823 5821 5818 5816 5813 5811 5808 5805 5802 5798 5795 5792 5788 5784 5780 5776 5771 5766 5762 5757 5752
5883 5881 5877 5873 5870 5866 5863 5860 5857 5855 5853 5851 5849 5847 5845 5843 5841 5839 5837 5836 5834 5832 5829 5827 5825 5822 5820 5817 5814 5811 5808 5805 5802 5798 5794 5791 5786 5782 5777 5772 5767 5762 5756 5750
5884 5881 5878 5875 5872 5868 5865 5862 5860 5857 5855 5854 5852 5850 5848 5846 5845 5843 5841 5839 5837 5835 5833 5831 5828 5826 5823 5820 5818 5814 5811 5808 5805 5801 5798 5794 5789 5785 5780 5774 5769 5763 5757 5751
5884 5882 5879 5876 5873 5871 5868 5865 5862 5860 5858 5856 5854 5853 5851 5849 5848 5846 5844 5843 5841 5839 5836 5834 5832 5829 5826 5824 5821 5818 5815 5812 5808 5805 5801 5797 5793 5788 5783 5778 5772 5767 5760 5754
5884 5882 5880 5878 5875 5872 5869 5867 5864 5862 5860 5858 5856 5855 5853 5852 5850 5849 5847 5845 5843 5841 5839 5837 5834 5832 5829 5827 5824 5821 5818 5815 5812 5808 5805 5801 5797 5792 5787 5782 5777 5772 5766 5760
5883 5881 5880 5878 5876 5873 5871 5868 5866 5864 5862 5860 5858 5857 5855 5854 5852 5851 5849 5847 5846 5844 5842 5839 5837 5834 5832 5829 5827 5824 5821 5818 5815 5811 5808 5804 5801 5797 5792 5788 5782 5777 5772 5768
5881 5880 5878 5877 5875 5873 5871 5869 5867 5865 5863 5861 5859 5858 5857 5855 5854 5852 5851 5849 5847 5845 5843 5841 5839 5837 5834 5832 5829 5827 5824 5821 5818 5815 5811 5808 5804 5800 5796 5792 5788 5784 5779 5775
5878 5877 5876 5875 5874 5873 5871 5869 5868 5866 5864 5862 5860 5859 5857 5856 5855 5853 5852 5850 5848 5847 5845 5843 5841 5839 5836 5834 5832 5829 5827 5824 5821 5818 5814 5811 5807 5804 5800 5797 5793 5789 5785 5782
5874 5874 5873 5873 5872 5871 5870 5868 5867 5866 5864 5862 5861 5859 5858 5856 5855 5853 5852 5850 5849 5847 5846 5844 5842 5840 5838 5836 5834 5831 5829 5826 5824 5821 5817 5814 5811 5807 5804 5801 5798 5794 5791 5788
5870 5870 5869 5869 5869 5868 5868 5867 5865 5864 5863 5862 5860 5859 5857 5856 5854 5853 5852 5850 5849 5847 5846 5844 5842 5840 5839 5837 5835 5833 5831 5828 5826 5823 5820 5817 5814 5811 5808 5805 5802 5799 5796 5793
5865 5865 5865 5865 5865 5865 5864 5864 5863 5862 5861 5860 5859 5857 5856 5855 5853 5852 5851 5850 5848 5847 5845 5844 5842 5840 5839 5837 5835 5833 5832 5830 5827 5825 5822 5819 5817 5814 5811 5808 5805 5803 5800 5798
5859 5860 5860 5860 5860 5860 5860 5859 5859 5858 5858 5857 5856 5855 5854 5853 5852 5851 5849 5848 5847 5846 5844 5843 5841 5840 5838 5836 5835 5833 5832 5830 5828 5826 5824 5821 5819 5816 5814 5811 5808 5806 5804 5801
5852 5853 5853 5854 5854 5854 5854 5854 5854 5854 5854 5853 5852 5852 5851 5850 5849 5848 5847 5846 5845 5844 5842 5841 5840 5838 5837 5835 5834 5832 5831 5830 5828 5827 5825 5823 5821 5818 5816 5813 5811 5809 5807 5805
5843 5845 5846 5847 5847 5848 5848 5848 5848 5848 5848 5848 5848 5847 5847 5846 5846 5845 5844 5843 5842 5841 5840 5839 5837 5836 5835 5833 5832 5831 5830 5829 5827 5826 5825 5823 5821 5819 5817 5815 5813 5811 5809 5807
5833 5835 5837 5838 5839 5840 5840 5841 5841 5841 5841 5841 5841 5841 5841 5841 5840 5840 5840 5839 5839 5838 5837 5836 5835 5834 5832 5831 5830 5829 5828 5826 5825 5824 5823 5822 5821 5819 5818 5816 5814 5812 5811 5809
5821 5823 5825 5827 5829 5830 5831 5832 5833 5833 5833 5834 5834 5834 5834 5834 5834 5834 5834 5834 5833 5833 5832 5832 5831 5830 5829 5828 5827 5826 5825 5824 5823 5822 5821 5820 5819 5818 5817 5816 5814 5813 5811 5810
5809 5810 5812 5814 5816 5818 5820 5821 5822 5823 5824 5825 5825 5825 5826 5826 5826 5826 5826 5826 5826 5826 5826 5826 5826 5825 5825 5824 5823 5822 5821 5820 5819 5818 5817 5817 5816 5815 5815 5814 5813 5812 5810 5809
5794 5795 5797 5799 5802 5804 5806 5808 5810 5812 5813 5814 5815 5815 5816 5816 5817 5817 5818 5818 5818 5818 5818 5819 5819 5819 5818 5818 5818 5817 5817 5816 5815 5814 5813 5812 5812 5811 5811 5810 5809 5809 5808 5807
5777 5779 5781 5784 5786 5789 5791 5794 5796 5798 5800 5802 5803 5803 5804 5805 5806 5807 5807 5808 5808 5809 5809 5810 5810 5810 5811 5811 5811 5811 5811 5810 5810 5809 5808 5807 5807 5806 5806 5805 5805 5804 5804 5803
5759 5761 5764 5766 5769 5772 5775 5777 5780 5783 5785 5787 5789 5790 5791 5792 5793 5794 5795 5796 5797 5798 5798 5799 5800 5800 5801 5801 5802 5802 5803 5803 5803 5802 5802 5802 5801 5800 5800 5799 5799 5798 5798 5798